Blythe, CA

4:52 PM PDT on April 21, 2018 (GMT -0700)
Blythe

Weather History for KBLH - April, 2012

Change the Weather History Date:

Wednesday, April 4, 2012

  Actual Average Record
Temperature  
Mean Temperature 70 °F -  
Max Temperature 89 °F 78 °F 95 °F (1989)
Min Temperature 53 °F 51 °F 42 °F (1977)
Cooling Degree Days 5    
Growing Degree Days 20 (Base 50)    
Moisture  
Dew Point 24 °F    
Average Humidity 18    
Maximum Humidity 24    
Minimum Humidity 10    
Precipitation  
Precipitation 0.00 in - - ()
Sea Level Pressure  
Sea Level Pressure 29.83 in    
Wind  
Wind Speed 7 mph (SSW)    
Max Wind Speed 17 mph    
Max Gust Speed 22 mph    
Visibility 10 miles    
Events      
Averages and records for this station are not official NWS values.
T = Trace of Precipitation, MM = Missing Value Source: NWS Daily Summary

Daily Weather History Graph

Daily Weather History Graph

Search for Another Location

Airport or City:

Astronomy

Apr. 04, 2012 Rise Set
Actual Time 6:21 AM PDT 7:02 PM PDT
Civil Twilight 5:56 AM PDT 7:27 PM PDT
Nautical Twilight 5:26 AM PDT 7:56 PM PDT
Astronomical Twilight 4:56 AM PDT 8:27 PM PDT
Moon 5:04 PM PDT (4/4) 4:40 AM PDT (4/4)
Length of Visible Light 13h 30m
Length of Day
12h 40m
Waxing Gibbous, 94% of the Moon is Illuminated
Apr 4
Waxing Gibbous
Apr 6
Full
Apr 13
Last Quarter
Apr 21
New
Apr 29
First Quarter

Hourly Weather History & Observations

Time (PDT) Temp. Dew Point Humidity Pressure Visibility Wind Dir Wind Speed Gust Speed Precip Events Conditions
12:52 AM 60.1 °F 17.1 °F 19% 29.88 in 10.0 mi North 4.6 mph - N/A   Clear
2:52 AM 59.0 °F 21.0 °F 23% 29.86 in 10.0 mi Calm Calm - N/A   Clear
3:52 AM 54.0 °F 14.0 °F 21% 29.86 in 10.0 mi NNW 5.8 mph - N/A   Clear
4:52 AM 53.1 °F 14.0 °F 21% 29.86 in 10.0 mi North 4.6 mph - N/A   Clear
5:52 AM 53.1 °F 15.1 °F 22% 29.86 in 10.0 mi North 9.2 mph - N/A   Clear
6:52 AM 53.1 °F 16.0 °F 23% 29.88 in 10.0 mi North 5.8 mph - N/A   Clear
7:52 AM 60.1 °F 19.0 °F 20% 29.90 in 10.0 mi North 3.5 mph - N/A   Clear
8:52 AM 66.9 °F 24.1 °F 20% 29.91 in 10.0 mi Calm Calm - N/A   Clear
9:52 AM 71.1 °F 32.0 °F 24% 29.91 in 10.0 mi SSE 9.2 mph - N/A   Clear
10:52 AM 75.0 °F 30.0 °F 19% 29.91 in 10.0 mi SSW 4.6 mph - N/A   Clear
11:52 AM 80.1 °F 32.0 °F 17% 29.89 in 10.0 mi South 5.8 mph - N/A   Clear
12:52 PM 82.9 °F 28.9 °F 14% 29.85 in 10.0 mi SE 8.1 mph 16.1 mph N/A   Clear
1:52 PM 86.0 °F 27.0 °F 12% 29.82 in 10.0 mi SSE 15.0 mph 21.9 mph N/A   Clear
3:52 PM 87.1 °F 25.0 °F 10% 29.77 in 10.0 mi South 15.0 mph 21.9 mph N/A   Clear
5:52 PM 87.1 °F 27.0 °F 11% 29.74 in 10.0 mi South 17.3 mph - N/A   Clear
6:52 PM 82.9 °F 30.9 °F 15% 29.73 in 10.0 mi South 8.1 mph - N/A   Clear
7:52 PM 79.0 °F 30.0 °F 17% 29.75 in 10.0 mi SSW 6.9 mph - N/A   Clear
8:52 PM 77.0 °F 30.0 °F 18% 29.76 in 10.0 mi SSW 9.2 mph - N/A   Clear
9:52 PM 77.0 °F 25.0 °F 15% 29.77 in 10.0 mi SSW 17.3 mph - N/A   Clear
10:52 PM 75.0 °F 21.0 °F 13% 29.77 in 10.0 mi SW 12.7 mph - N/A   Clear
11:52 PM 73.0 °F 19.9 °F 14% 29.78 in 10.0 mi SW 6.9 mph - N/A   Clear